#timestamp,LO_Frequency,Hit,StdDev 
1512198015.6,286046997.4,N
1512198035.5,286046995.7,N
1512198085.4,286046996.9,E
1512198095.3,286046998.6,N
1512198115.1,286046997.6,P
1512198135.9,286046995.2,P
1512198155.7,286046993.8,Y
1512198175.5,286046995.7,P
1512198195.4,286046994.9,P
1512198215.2,286046996.8,P
1512198235.0,286046997.1,Y
1512198236.0,286046997.1,P
1512198255.8,286047001.4,N
1512198275.6,286047010.7,P
1512198295.5,286047005.6,N
1512198315.3,286047001.3,N
1512198335.1,286047000.4,N
1512198355.9,286047005.1,N
1512198375.7,286047006.0,N
1512198395.6,286047004.2,N
1512198415.4,286047011.1,N
1512198435.2,286047021.2,Y
1512198455.1,286047012.8,P
1512198456.0,286047012.8,N
1512198475.8,286047008.1,N
1512198495.6,286047006.1,N
1512198515.5,286047008.6,N
1512198535.3,286047003.6,N
1512198555.2,286047011.0,Y
1512198575.9,286047000.9,P
1512198595.7,286046994.0,N
1512198615.6,286046989.4,N
1512198635.4,286046985.4,N
1512198655.2,286046988.0,N
1512198675.1,286046988.5,N
1512198676.0,286046988.5,N
1512198695.8,286046997.0,N
1512198715.7,286046994.9,N
1512198735.5,286046998.4,N
1512198755.3,286046992.6,N
1512198775.2,286046991.1,N
1512198795.0,286046989.9,N
1512198795.9,286046989.9,N
1512198815.8,286046985.7,N
1512198835.6,286046987.6,N
1512198855.4,286046991.1,N
1512198875.3,286046991.6,N
1512198895.1,286046993.6,N
1512198915.8,286046999.2,N
1512198935.7,286046995.3,N
1512198955.5,286046990.9,N
1512198975.4,286046987.8,N
1512198995.2,286046989.3,N
1512199015.0,286046989.7,N
1512199015.9,286046989.7,N
1512199035.8,286046990.9,N
1512199055.6,286046992.7,N
1512199075.4,286046991.9,N
1512199095.3,286046995.8,N
1512199115.1,286046997.7,N
1512199135.9,286047002.6,N
1512199155.7,286047002.4,N
1512199175.5,286047001.1,N
1512199195.4,286046996.4,N
1512199215.2,286046990.2,N
1512199235.0,286046988.8,N
1512199235.9,286046988.8,N
1512199255.8,286046995.5,N
1512199275.6,286046994.9,N
1512199295.5,286046991.1,N
1512199315.3,286046996.1,N
1512199335.1,286046992.1,N
1512199355.9,286046998.0,N
1512199375.7,286047004.0,N
1512199395.5,286047009.8,N
1512199415.4,286047008.8,N
1512199435.2,286047012.3,N
1512199455.1,286047007.1,N
1512199456.0,286047007.1,N
1512199475.8,286047002.1,N
1512199495.6,286047013.9,N
1512199515.5,286047015.0,N
1512199535.3,286047010.9,N
1512199555.2,286047006.8,N
1512199575.9,286047009.2,N
1512199595.7,286047013.6,N
1512199615.6,286047015.8,N
1512199635.4,286047025.9,Y
1512199655.2,286047025.9,P
1512199675.1,286047026.1,N
1512199676.0,286047026.1,N
1512199695.8,286047018.0,N
1512199715.7,286047022.9,N
1512199735.5,286047020.7,N
1512199755.3,286047017.8,N
1512199775.2,286047019.0,N
1512199795.0,286047023.6,Y
1512199795.9,286047023.6,P
1512199815.8,286047003.9,N
1512199835.6,286047005.5,N
1512199855.4,286047002.8,N
1512199875.3,286047001.1,N
1512199895.1,286047000.2,N
1512199915.8,286047000.7,N
1512199935.7,286046999.2,N
1512199955.5,286047001.3,N
1512199975.4,286047009.1,N
1512199995.2,286047004.7,N
1512200015.0,286047009.5,N
1512200015.9,286047009.5,N
1512200035.8,286047013.9,N
1512200055.6,286047011.4,N
1512200075.4,286047014.6,N
1512200095.3,286047017.8,N
1512200115.1,286047019.8,N
1512200135.9,286047020.1,N
1512200155.7,286047019.7,N
1512200175.5,286047019.4,N
1512200195.4,286047023.0,N
1512200215.2,286047023.4,N
1512200235.0,286047015.7,N
1512200235.9,286047015.7,N
1512200255.8,286047022.2,N
1512200275.6,286047025.9,Y
1512200295.5,286047012.0,P
1512200315.3,286047007.4,P
1512200335.1,286047005.0,N
1512200355.9,286047005.6,N
1512200375.7,286047002.7,N
1512200395.5,286047005.4,N
1512200415.4,286047004.6,N
1512200435.2,286047008.2,N
1512200455.1,286047007.6,N
1512200456.0,286047007.6,N
1512200475.8,286047006.6,N
1512200495.6,286047006.8,N
1512200515.5,286047010.5,Y
1512200535.3,286046995.5,P
1512200555.2,286046998.9,N
1512200575.9,286047001.8,N
1512200595.7,286047007.2,N
1512200615.6,286047003.4,N
1512200635.4,286047007.3,N
1512200655.2,286047011.2,N
1512200675.1,286047015.5,Y
1512200676.0,286047015.5,P
1512200695.8,286047011.3,N
1512200715.7,286047006.2,N
1512200735.5,286047006.9,N
1512200755.3,286047006.6,N
1512200775.2,286047005.7,N
1512200795.0,286047007.8,N
1512200795.9,286047007.8,N
1512200815.7,286047010.6,Y
1512200835.6,286047002.6,P
1512200855.4,286046997.7,N
1512200875.3,286047000.3,N
1512200895.1,286047007.0,N
1512200896.0,286047007.0,N
1512200915.8,286047010.0,N
1512200935.7,286047008.0,N
1512200955.5,286047004.8,N
1512200975.3,286047003.1,N
1512200995.2,286047001.4,N
1512201015.0,286047003.8,N
1512201015.9,286047003.8,N
1512201035.8,286046999.9,N
1512201055.6,286047005.9,N
1512201075.4,286047008.6,N
1512201095.3,286047006.5,N
1512201115.1,286047011.7,Y
1512201135.9,286047008.3,P
1512201155.7,286047001.7,N
1512201175.5,286047000.3,N
1512201195.4,286046996.6,N
1512201215.2,286046996.4,N
1512201235.0,286046995.7,N
1512201235.9,286046995.7,N
1512201255.8,286046998.8,N
1512201275.6,286046997.0,N
1512201295.5,286046999.9,N
1512201315.3,286047006.4,N
1512201335.1,286047012.3,N
1512201355.9,286047010.3,N
1512201375.7,286047009.4,N
1512201395.5,286047010.9,N
1512201415.4,286047008.2,N
1512201435.2,286047011.1,N
1512201455.1,286047015.4,N
1512201456.0,286047015.4,N
1512201475.8,286047013.5,N
1512201495.6,286047012.9,N
1512201515.5,286047015.8,N
1512201535.3,286047015.1,N
1512201555.1,286047011.3,N
1512201575.9,286047014.9,N
1512201595.7,286047006.4,N
